Location: Caltech
(34.1382°N, 118.1253°W)
Time: 02:23:48
(UTC-07:00)

Aureole 2 Rocket - Visible Passes

Search period start: 29 March 2015 00:00
Search period end: 08 April 2015 00:00
Orbit: 343 x 699 km, 73.9° (Epoch: 28 March)

Date Brightness Start Highest point End Pass type
(mag) Time Alt. Az. Time Alt. Az. Time Alt. Az.
04 Apr 5.3 21:21:02 10° N 21:21:13 11° N 21:21:13 11° N visible
05 Apr 4.9 21:06:54 10° N 21:07:50 16° NNE 21:07:50 16° NNE visible
06 Apr 4.4 20:52:42 10° NNE 20:54:27 20° NE 20:54:27 20° NE visible
07 Apr 4.1 20:38:26 10° NNE 20:41:04 24° ENE 20:41:04 24° ENE visible
07 Apr 5.8 22:15:22 10° WNW 22:16:11 14° WNW 22:16:11 14° WNW visible
